EW4366 Weather Reports


time (UTC)temp
C
wind
direction
speed
KPH
gust
KPH
rain 1hr
cm
rain 24hr
cm
rain mn
cm
humidity
%
barometer
mb
20260502164015 13 0.0 0.0 0.00 0.00 0.00 41 1013.2
20260502163015 13 293 1.6 6.4 0.00 0.00 0.00 44 1013.5
20260502162016 13 0.0 1.6 0.00 0.00 0.00 48 1013.6
20260502161015 13 0.0 1.6 0.00 0.00 0.00 45 1013.8
20260502152015 11 315 3.2 4.8 0.00 0.00 0.00 56 1014.1
20260502151016 11 0.0 0.0 0.00 0.00 0.00 54 1014.2
20260502123017 7 0.0 0.0 0.00 0.00 0.00 69 1014.5
20260502122017 7 135 1.6 4.8 0.00 0.00 0.00 69 1014.6
20260502121017 6 0.0 0.0 0.00 0.00 0.00 69 1014.7
20260502115017 6 203 1.6 3.2 0.00 0.00 0.00 71 1014.7
20260502114017 6 0.0 0.0 0.00 0.00 0.00 71 1014.6
20260502113017 6 0.0 0.0 0.00 0.00 0.00 71 1014.7
20260502112017 6 0.0 1.6 0.00 0.00 0.00 72 1014.6
20260502111057 6 0.0 0.0 0.00 0.00 0.00 71 1014.5
20260502110017 6 0.0 0.0 0.00 0.00 0.00 70 1014.6
20260502105017 6 315 1.6 3.2 0.00 0.00 0.00 69 1014.6
20260502104017 6 0.0 3.2 0.00 0.00 0.00 68 1014.4
20260502103017 6 0.0 0.0 0.00 0.00 0.00 68 1014.4
20260502102018 6 0.0 0.0 0.00 0.00 0.00 67 1014.6
20260502101017 7 0.0 0.0 0.00 0.00 0.00 67 1014.8
20260502091017 7 0.0 3.2 0.00 0.00 0.00 59 1015.0
20260502071057 9 0.0 1.6 0.00 0.00 0.00 61 1014.7
20260502070017 9 0.0 1.6 0.00 0.00 0.00 64 1014.7
20260502065017 9 338 1.6 3.2 0.00 0.00 0.00 68 1014.6
20260502064017 10 0.0 0.0 0.00 0.00 0.00 71 1014.9
20260502063017 10 0.0 0.0 0.00 0.00 0.00 70 1014.7
20260502062017 10 0.0 0.0 0.00 0.00 0.00 71 1014.8
20260502061057 10 0.0 0.0 0.00 0.00 0.00 71 1014.7
20260502060037 10 113 4.8 12.9 0.00 0.00 0.00 70 1014.6
20260502055017 10 68 1.6 3.2 0.00 0.00 0.00 70 1014.8
20260502054016 10 0.0 0.0 0.00 0.00 0.00 70 1014.7
20260502053016 10 113 1.6 6.4 0.00 0.00 0.00 70 1014.6
20260502052017 10 0 1.6 9.7 0.00 0.00 0.00 70 1014.7
20260502051017 10 0.0 0.0 0.00 0.00 0.00 69 1014.7
20260502050017 10 0.0 0.0 0.00 0.00 0.00 68 1014.7
20260502045017 10 0.0 1.6 0.00 0.00 0.00 68 1014.7
20260502044036 11 0.0 0.0 0.00 0.00 0.00 68 1014.8
20260502043016 11 0.0 0.0 0.00 0.00 0.00 68 1014.7
20260502042016 11 0.0 0.0 0.00 0.00 0.00 67 1014.6
20260502041036 11 0.0 0.0 0.00 0.00 0.00 65 1014.7
20260502040016 11 225 1.6 4.8 0.00 0.00 0.00 64 1014.5
20260502035016 11 180 1.6 3.2 0.00 0.00 0.00 65 1014.6
20260502034016 11 158 1.6 3.2 0.00 0.00 0.00 66 1014.8
20260502033016 11 293 1.6 3.2 0.00 0.00 0.00 66 1014.6
20260502032017 11 315 1.6 3.2 0.00 0.00 0.00 66 1014.6
20260502031037 12 0.0 4.8 0.00 0.00 0.00 67 1014.7
20260502030016 12 0.0 0.0 0.00 0.00 0.00 67 1014.4
20260502025018 12 0.0 0.0 0.00 0.00 0.00 68 1014.3
20260502024016 12 0.0 1.6 0.00 0.00 0.00 68 1014.2
20260502023016 12 293 3.2 6.4 0.00 0.00 0.00 67 1014.1
20260502022016 12 45 1.6 4.8 0.00 0.00 0.00 67 1013.9
20260502021016 12 0.0 1.6 0.00 0.00 0.00 68 1013.9
20260502020036 12 203 3.2 6.4 0.00 0.00 0.00 67 1013.4
20260502015016 12 0.0 1.6 0.00 0.00 0.00 67 1013.0
20260502014016 12 0.0 3.2 0.00 0.00 0.00 66 1013.0
20260502013016 12 248 1.6 3.2 0.00 0.00 0.00 65 1012.9
20260502012016 13 45 1.6 8.0 0.00 0.00 0.00 64 1012.6
20260502011016 13 248 1.6 6.4 0.00 0.00 0.00 61 1012.3
20260502010016 14 315 3.2 12.9 0.00 0.00 0.00 58 1011.6
20260502005016 15 0.0 1.6 0.00 0.00 0.00 54 1011.4
20260502004016 16 315 3.2 6.4 0.00 0.00 0.00 48 1011.1
20260502003016 17 338 3.2 4.8 0.00 0.00 0.00 42 1010.4
20260502002016 17 270 1.6 3.2 0.00 0.00 0.00 41 1010.0
20260502001016 17 270 1.6 4.8 0.00 0.00 0.00 40 1010.0
20260502000016 17 293 1.6 4.8 0.00 0.00 0.00 40 1009.7
20260501235016 17 0.0 3.2 0.00 0.00 0.00 39 1009.5
20260501234036 17 0.0 1.6 0.00 0.00 0.00 38 1009.1
20260501233036 18 315 4.8 8.0 0.00 0.00 0.00 38 1009.1
20260501232016 18 0.0 0.0 0.00 0.00 0.00 39 1009.1
20260501231016 18 0.0 1.6 0.00 0.00 0.00 38 1009.0
20260501230016 18 0.0 0.0 0.00 0.00 0.00 38 1009.2
20260501225016 18 0.0 0.0 0.00 0.00 0.00 36 1009.3
20260501224037 20 0.0 1.6 0.00 0.00 0.00 35 1009.1
20260501223036 20 0.0 0.0 0.00 0.00 0.00 34 1009.2
20260501222016 20 0.0 0.0 0.00 0.00 0.00 33 1009.2
20260501221016 20 0.0 0.0 0.00 0.00 0.00 35 1009.3
20260501220016 20 293 1.6 3.2 0.00 0.00 0.00 33 1009.3
20260501215016 20 338 1.6 6.4 0.00 0.00 0.00 30 1009.2
20260501214016 21 248 1.6 6.4 0.00 0.00 0.00 29 1009.1
20260501213036 21 0.0 1.6 0.00 0.00 0.00 30 1009.2
20260501212016 21 248 3.2 11.3 0.00 0.00 0.00 27 1009.0
20260501211016 21 0.0 1.6 0.00 0.00 0.00 30 1009.1
20260501210016 21 270 1.6 11.3 0.00 0.00 0.00 27 1009.3
20260501205016 21 203 4.8 25.7 0.00 0.00 0.00 28 1009.1
20260501204016 20 248 4.8 9.7 0.00 0.00 0.00 30 1009.0
20260501203016 20 225 3.2 8.0 0.00 0.00 0.00 31 1009.2
20260501202016 20 203 3.2 6.4 0.00 0.00 0.00 31 1009.2
20260501201037 20 203 4.8 12.9 0.00 0.00 0.00 30 1009.4
20260501200016 20 293 3.2 6.4 0.00 0.00 0.00 28 1009.5
20260501195016 20 270 3.2 9.7 0.00 0.00 0.00 30 1009.6
20260501194016 20 270 1.6 4.8 0.00 0.00 0.00 29 1009.7
20260501193016 20 270 3.2 11.3 0.00 0.00 0.00 31 1009.9
20260501192016 21 270 3.2 4.8 0.00 0.00 0.00 28 1010.1
20260501191016 21 0.0 3.2 0.00 0.00 0.00 29 1010.1
20260501190016 20 203 3.2 8.0 0.00 0.00 0.00 28 1010.5
20260501185016 20 203 1.6 4.8 0.00 0.00 0.00 34 1010.5
20260501184016 20 225 3.2 6.4 0.00 0.00 0.00 35 1010.6
20260501183016 20 180 3.2 4.8 0.00 0.00 0.00 37 1010.7
20260501182015 20 0.0 1.6 0.00 0.00 0.00 36 1010.9
20260501181015 19 293 1.6 4.8 0.00 0.00 0.00 36 1011.0
20260501180016 19 158 3.2 8.0 0.00 0.00 0.00 36 1011.2
20260501175016 19 248 1.6 3.2 0.00 0.00 0.00 37 1011.5
20260501174016 18 0.0 3.2 0.00 0.00 0.00 38 1011.7
20260501173016 18 135 11.3 17.7 0.00 0.00 0.00 34 1011.8
20260501172016 18 0.0 1.6 0.00 0.00 0.00 37 1012.0